Simultaneous Nadir Overpasses (SNOs) Predictions

Prediction of SNOs between GOES-17 and METOP-B Satellite Orbit:

Table of predicted SNOs for the next 14.0 days since TLE Epoch: 8/14/2021
Index Date Time (GOES-17) GOES-17 Lat,Lon METOP-B Lat,Lon Distance(km) Time Diff (sec)
1 08/15/2021 06:48:55 0.02,-137.20 -0.59,-139.78 294.68 80
2 08/16/2021 06:30:56 0.01,-137.19 0.57,-134.79 274.23 80
3 08/17/2021 18:47:08 -0.01,-137.19 0.49,-139.34 245.99 80
4 08/18/2021 18:29:09 -0.01,-137.18 -0.67,-134.36 322.39 80
5 08/20/2021 06:45:30 0.02,-137.16 -0.36,-138.95 203.51 80
6 08/21/2021 06:24:50 0.03,-137.15 0.74,-133.95 364.52 80
7 08/22/2021 18:43:42 -0.02,-137.14 0.26,-138.52 156.21 80
8 08/23/2021 18:25:43 -0.02,-137.13 -0.84,-133.52 411.92 80
9 08/25/2021 06:44:43 0.02,-137.11 -0.19,-138.11 113.88 80
10 08/26/2021 06:21:24 0.02,-137.10 0.91,-133.11 453.95 80
11 08/27/2021 18:40:15 -0.02,-137.08 0.14,-137.67 67.49 80
